[[{"header":{"parameterUnit":"m.s-1","parameterCategory":1,"la1":30.2991,"la2":30.254,"lo1":-89.0895,"lo2":-89.0444,"dy":0.0017,"dx":0.0017,"nx":28,"ny":28,"refTime":"2024-03-06T03:00:00:Z","depth":0,"parameterNumber":2,"parameterNumberName":"U-component_of_WINDS"},"data":[0,0,0,0,0,0,0,0,0,0,0,0,0,0,0,0,0,0,0,0,0,0,0,0,0,0,0,0,0,0,0,0,0,0,0,0,0,0,0,0,0,0,0,0,0,0,0,0,0,0,0,0,0,0,0,0,0,0,1.3323,1.3324,0,1.3354,1.3354,1.3354,1.3313,1.3312,1.331,1.3309,1.3344,1.3346,1.3348,0,0,0,0,0,0,0,0,0,0,0,0,0,1.3236,1.3237,1.3323,1.3324,1.3324,1.3354,1.3354,1.3354,1.3313,1.3312,1.331,1.3308,1.3343,1.3346,1.3349,0,0,0,0,0,0,0,0,0,0,0,0,0,1.3271,1.3238,1.3323,1.3307,1.3306,1.3353,1.3354,1.3354,1.3314,1.3312,1.3309,1.3307,1.3342,1.3346,1.3349,1.3415,0,0,1.336,1.3361,0,0,0,0,0,0,0,0,1.3269,1.3274,1.3309,1.3308,1.3307,1.3327,1.3336,1.3375,1.3314,1.3311,1.3309,1.3306,1.334,1.3344,1.3355,1.3417,1.3418,1.336,1.3362,1.3364,1.3365,0,0,0,0,0,0,0,1.3266,1.3273,1.3335,1.331,1.3308,1.33,1.3303,1.3343,1.3338,1.3311,1.3308,1.3312,1.3339,1.3351,1.3355,1.3419,1.336,1.3363,1.3365,1.3366,1.3541,1.3543,0,0,0,0,0,0,1.3265,1.3271,1.3334,1.3336,1.3282,1.3304,1.3306,1.3323,1.3337,1.3337,1.3314,1.331,1.3347,1.3351,1.3356,1.3437,1.3364,1.3367,1.3369,1.3538,1.3541,1.3544,0,0,0,0,0,0,1.3264,1.3271,1.3333,1.3303,1.331,1.3307,1.3327,1.3325,1.3337,1.3339,1.3339,1.3327,1.3345,1.3351,1.3401,1.3437,1.3368,1.3372,1.3535,1.3539,1.3542,1.3597,0,0,0,0,0,0,1.3261,1.3271,1.3294,1.3303,1.3312,1.3376,1.3329,1.3327,1.3342,1.3337,1.3351,1.3351,1.3344,1.3396,1.3405,1.3441,1.3374,1.3532,1.3537,1.3541,1.3592,1.3602,1.3611,0,0,0,0,0,1.3258,1.3309,1.3296,1.3304,1.3341,1.3378,1.3383,1.3372,1.3345,1.337,1.3373,1.3351,1.3432,1.3402,1.3411,1.3449,1.3529,1.3535,1.3541,1.3588,1.36,1.3611,0,0,0,0,0,0,1.3304,1.3309,1.3295,1.335,1.3364,1.3371,1.3402,1.3385,1.3408,1.3402,1.3389,1.3393,1.3447,1.3452,1.3419,1.3515,1.3477,1.3484,1.3509,1.3521,1.3531,1.3529,1.3377,0,0,0,0,0,1.3321,1.3349,1.3353,1.3401,1.3408,1.3404,1.342,1.341,1.3425,1.3431,1.3437,1.3453,1.3482,1.3502,1.3529,1.3593,1.3597,1.3624,1.3633,1.3641,1.3648,1.3686,1.3699,1.3563,1.3563,1.3562,0,0,1.3355,1.3362,1.338,1.341,1.342,1.3452,1.3409,1.3444,1.3468,1.3436,1.3484,1.349,1.3507,1.3565,1.3591,1.3572,1.3687,1.3648,1.3654,1.3658,1.3693,1.3706,1.3717,1.3566,1.3566,1.3565,0,0,1.3435,1.3441,1.3483,1.3494,1.3509,1.3507,1.3517,1.3527,1.353,1.3577,1.3555,1.3585,1.3634,1.3649,1.3663,1.3751,1.3733,1.376,1.381,1.3847,1.3858,1.3867,1.3901,1.3913,1.3767,1.3767,1.3767,0,1.3476,1.3521,1.3507,1.3544,1.3559,1.3532,1.3576,1.3588,1.3612,1.3624,1.3601,1.3666,1.3675,1.3738,1.376,1.3771,1.3785,1.3758,1.3857,1.3866,1.3875,1.3907,1.392,1.3771,1.377,1.377,1.3769,0,1.3573,1.3605,1.3637,1.3661,1.3679,1.372,1.3714,1.3735,1.3725,1.3726,1.3776,1.3787,1.3817,1.3831,1.3821,1.3894,1.3882,1.3858,1.382,1.3891,1.3922,1.3934,1.3775,1.3774,1.3773,1.3772,0,0,1.3681,1.3697,1.371,1.3721,1.3737,1.3763,1.3804,1.3832,1.3852,1.387,1.3906,1.395,1.393,1.3946,1.3937,1.3969,1.4042,1.3943,1.3943,1.3963,1.4126,1.4145,1.4159,1.403,1.4033,1.4034,1.4125,0,1.3761,1.383,1.382,1.3887,1.3919,1.3894,1.393,1.3946,1.3948,1.3977,1.398,1.4012,1.3981,1.3991,1.4022,1.4027,1.4075,1.402,1.4066,1.4068,1.4063,1.4174,1.4193,1.4278,1.4137,1.4139,1.414,0,1.3864,1.3886,1.3957,1.397,1.3983,1.4015,1.4043,1.4069,1.4088,1.4087,1.4107,1.4094,1.4137,1.4097,1.4159,1.4122,1.414,1.4146,1.4149,1.4154,1.4109,1.4184,1.4305,1.4319,1.4158,1.4157,1.4156,0,1.3939,1.3986,1.4035,1.4045,1.4062,1.4086,1.4095,1.411,1.4129,1.4154,1.4167,1.4196,1.4213,1.4237,1.4234,1.4204,1.4298,1.4257,1.4301,1.4302,1.4322,1.4321,1.445,1.4332,1.4332,1.4331,1.4331,0,1.4031,1.4075,1.4069,1.4099,1.4149,1.4139,1.419,1.4195,1.421,1.4243,1.4224,1.4256,1.4249,1.4281,1.4279,1.4332,1.4339,1.4342,1.4341,1.4345,1.4345,1.4357,1.4352,1.4335,1.4334,1.4333,1.4333,0,1.4122,1.4119,1.4171,1.4184,1.4188,1.4225,1.4237,1.4267,1.4268,1.431,1.432,1.4323,1.436,1.4359,1.4402,1.44,1.4467,1.4458,1.446,1.4459,1.4504,1.4501,1.4647,1.4667,1.4534,1.4535,1.4536,0,1.4181,1.4215,1.4232,1.4252,1.4262,1.4295,1.4314,1.4306,1.4328,1.4353,1.4381,1.4417,1.4445,1.4506,1.4514,1.4547,1.454,1.4589,1.4545,1.4549,1.4544,1.4543,1.4547,1.4598,1.46,1.4601,1.4602,0,1.4288,1.4285,1.4313,1.4342,1.4366,1.4389,1.4409,1.4427,1.4422,1.4448,1.4486,1.4508,1.4552,1.4589,1.4622,1.4633,1.4618,1.4616,1.4628,1.4633,1.4633,1.4636,1.4486,1.4613,1.4611,1.4611,1.461,1.461,1.4366,1.4396,1.4413,1.4446,1.4461,1.4482,1.4511,1.4517,1.4548,1.4583,1.4577,1.462,1.4641,1.4683,1.4698,1.4733,1.4716,1.4734,1.4738,1.4743,1.4749,1.4627,1.4739,1.4739,1.4738,1.4738,1.4738,0,1.4473,1.4484,1.4514,1.4544,1.4571,1.4553,1.4576,1.4601,1.4638,1.4659,1.4687,1.4733,1.4769,1.478,1.4816,1.4843,1.4837,1.4853,1.4851,1.4855,1.4761,1.4748,1.4857,1.4857,1.4857,1.4857,1.4857,1.4857,1.4532,1.4583,1.4583,1.4643,1.4653,1.4695,1.471,1.473,1.4746,1.4797,1.4827,1.4834,1.4852,1.4889,1.4923,1.4926,1.4941,1.496,1.496,1.4873,1.4861,1.485,1.4837,1.4963,1.4963,1.5051,1.5052,1.5052]},{"header":{"parameterUnit":"m.s-1","parameterCategory":1,"la1":30.2991,"la2":30.254,"lo1":-89.0895,"lo2":-89.0444,"dy":0.0017,"dx":0.0017,"nx":28,"ny":28,"refTime":"2024-03-06T03:00:00:Z","depth":0,"parameterNumber":3,"parameterNumberName":"V-component_of_WINDS"},"data":[0,0,0,0,0,0,0,0,0,0,0,0,0,0,0,0,0,0,0,0,0,0,0,0,0,0,0,0,0,0,0,0,0,0,0,0,0,0,0,0,0,0,0,0,0,0,0,0,0,0,0,0,0,0,0,0,0,0,1.175,1.1753,0,1.2074,1.2078,1.2081,1.219,1.2188,1.2187,1.2186,1.2527,1.2537,1.2548,0,0,0,0,0,0,0,0,0,0,0,0,0,1.1233,1.1241,1.1749,1.1753,1.1758,1.2073,1.2078,1.2082,1.219,1.2188,1.2186,1.2185,1.2524,1.2536,1.2549,0,0,0,0,0,0,0,0,0,0,0,0,0,1.1497,1.1244,1.1749,1.1849,1.1861,1.2073,1.2078,1.2084,1.219,1.2188,1.2186,1.2184,1.252,1.2535,1.255,1.2688,0,0,1.2598,1.2605,0,0,0,0,0,0,0,0,1.1482,1.1516,1.183,1.1843,1.1857,1.2089,1.2021,1.2287,1.2191,1.2066,1.2185,1.2183,1.2384,1.241,1.2476,1.2704,1.2719,1.2599,1.2609,1.2615,1.262,0,0,0,0,0,0,0,1.1464,1.1503,1.1878,1.1835,1.1851,1.1881,1.1916,1.2072,1.2233,1.2076,1.2085,1.2121,1.2391,1.2461,1.2485,1.2724,1.2599,1.2613,1.2622,1.2628,1.3086,1.3088,0,0,0,0,0,0,1.1427,1.1487,1.1868,1.1888,1.166,1.1892,1.1931,1.2017,1.2231,1.2262,1.2123,1.2125,1.2435,1.2467,1.2497,1.2676,1.2615,1.263,1.2639,1.3083,1.3086,1.3089,0,0,0,0,0,0,1.1415,1.146,1.1855,1.169,1.1742,1.1903,1.1998,1.2024,1.2094,1.2266,1.2296,1.2164,1.2435,1.2475,1.264,1.2689,1.2637,1.2651,1.3079,1.3084,1.3088,1.3031,0,0,0,0,0,0,1.14,1.1455,1.1507,1.169,1.1751,1.1989,1.2001,1.2032,1.212,1.2126,1.2313,1.2342,1.2436,1.2616,1.2656,1.271,1.2663,1.3076,1.3081,1.3086,1.303,1.3033,1.3036,0,0,0,0,0,1.1381,1.148,1.1509,1.1554,1.1818,1.1991,1.2027,1.213,1.2123,1.2179,1.2289,1.2337,1.2676,1.2632,1.2677,1.2737,1.3073,1.308,1.3086,1.3028,1.3033,1.3036,0,0,0,0,0,0,1.1301,1.1505,1.154,1.17,1.1827,1.2009,1.2082,1.2131,1.2265,1.2265,1.2391,1.2432,1.2588,1.2679,1.2626,1.2883,1.2878,1.2893,1.2818,1.2824,1.2827,1.2803,1.2676,0,0,0,0,0,1.1301,1.1421,1.1595,1.1719,1.1781,1.192,1.1999,1.2068,1.2206,1.2261,1.2384,1.2519,1.2657,1.2745,1.2881,1.3043,1.3087,1.3106,1.3109,1.3111,1.3124,1.322,1.3231,1.311,1.311,1.311,0,0,1.1304,1.1431,1.15,1.1706,1.1813,1.1939,1.1965,1.2096,1.2192,1.2282,1.2445,1.254,1.2699,1.2863,1.2942,1.2944,1.3167,1.3119,1.3119,1.3132,1.3227,1.3239,1.3249,1.3114,1.3113,1.3113,0,0,1.1374,1.148,1.1597,1.1703,1.1863,1.1955,1.1982,1.2158,1.2223,1.2388,1.2459,1.2576,1.2809,1.2921,1.3008,1.312,1.3171,1.3161,1.318,1.3271,1.3281,1.329,1.3334,1.3348,1.3173,1.3173,1.3173,0,1.1359,1.1547,1.1651,1.1779,1.187,1.1954,1.2075,1.2174,1.2371,1.2433,1.2432,1.2728,1.2841,1.3034,1.3061,1.3128,1.3167,1.3142,1.327,1.3281,1.3291,1.3334,1.335,1.3171,1.3171,1.3172,1.3172,0,1.1522,1.1652,1.1727,1.1913,1.2012,1.2135,1.2261,1.2349,1.2409,1.2502,1.2671,1.2809,1.2975,1.3026,1.3086,1.3229,1.3225,1.3245,1.3243,1.3299,1.3342,1.3359,1.3168,1.3169,1.317,1.317,0,0,1.1552,1.1793,1.1819,1.1906,1.2089,1.2193,1.2322,1.2482,1.2556,1.269,1.2804,1.2999,1.3019,1.3118,1.3192,1.3272,1.3357,1.3284,1.3289,1.3295,1.3526,1.3512,1.3529,1.3389,1.3393,1.3396,1.3514,0,1.1648,1.1879,1.1976,1.2164,1.2287,1.2369,1.2482,1.2609,1.2699,1.282,1.2921,1.3059,1.3073,1.3134,1.3216,1.3328,1.3405,1.3321,1.3501,1.3506,1.3461,1.3551,1.3537,1.3642,1.3531,1.3534,1.3536,0,1.1791,1.1923,1.2121,1.2291,1.2347,1.2446,1.2602,1.2714,1.2861,1.2921,1.3031,1.3101,1.3243,1.3229,1.3429,1.3369,1.3449,1.3515,1.3522,1.3546,1.3526,1.3581,1.3677,1.3694,1.3563,1.3561,1.3559,0,1.1797,1.2024,1.2173,1.2244,1.2444,1.2513,1.26,1.2744,1.2835,1.2972,1.3033,1.3185,1.327,1.3388,1.3499,1.3477,1.369,1.3684,1.3748,1.3746,1.3792,1.3788,1.3906,1.3837,1.3837,1.3837,1.3836,0,1.1896,1.2015,1.2178,1.227,1.2407,1.2519,1.2653,1.2747,1.2874,1.2989,1.307,1.3176,1.3314,1.344,1.3527,1.3682,1.3719,1.3775,1.3798,1.377,1.3763,1.3826,1.3823,1.3841,1.384,1.3839,1.3838,0,1.1926,1.204,1.2208,1.2383,1.2431,1.2524,1.2677,1.2771,1.2864,1.3009,1.3049,1.3198,1.335,1.3471,1.3669,1.3729,1.3893,1.3916,1.3842,1.3855,1.3913,1.3907,1.4079,1.4109,1.4015,1.4016,1.4017,0,1.1983,1.2076,1.2261,1.2342,1.2428,1.2557,1.265,1.2765,1.2858,1.3032,1.3107,1.3263,1.3395,1.3634,1.3763,1.3916,1.3947,1.3996,1.3971,1.394,1.3952,1.3946,1.3958,1.4,1.4,1.4,1.4001,0,1.2073,1.2125,1.2253,1.2402,1.2509,1.2632,1.2758,1.282,1.2959,1.3061,1.3215,1.3317,1.3519,1.3675,1.3842,1.3937,1.3994,1.4007,1.4031,1.4005,1.396,1.3989,1.3853,1.4003,1.4003,1.4003,1.4003,1.4003,1.2122,1.2209,1.2353,1.2495,1.26,1.2716,1.2814,1.2919,1.3048,1.322,1.328,1.344,1.3588,1.3817,1.3912,1.4042,1.4047,1.408,1.409,1.4097,1.4095,1.3935,1.4073,1.4073,1.4073,1.4073,1.4073,0,1.2219,1.2315,1.2443,1.2615,1.2727,1.2766,1.2908,1.3,1.3139,1.3269,1.3396,1.3576,1.3728,1.3868,1.4028,1.4105,1.4135,1.4143,1.4141,1.4163,1.408,1.4045,1.4116,1.4116,1.4116,1.4116,1.4116,1.4116,1.2283,1.2434,1.2503,1.2709,1.2806,1.296,1.3038,1.3147,1.3252,1.3447,1.3573,1.3662,1.3798,1.3968,1.4111,1.4149,1.4206,1.4208,1.4253,1.4174,1.4168,1.4162,1.413,1.4218,1.4218,1.4325,1.4326,1.4327]}]]